Albuquerque, NM

1:26 AM MST on February 26, 2017 (GMT -0700)
Double Eagle Ii

Weather History for KAEG - April, 2013

Change the Weather History Date:

Thursday, April 18, 2013

  Actual Average (KABQ) Record (KABQ)
Temperature  
Mean Temperature 35 °F -  
Max Temperature 44 °F 72 °F 87 °F (1994)
Min Temperature 26 °F 42 °F 28 °F (1896)
Degree Days  
Heating Degree Days 30    
Moisture  
Dew Point 4 °F    
Average Humidity 32    
Maximum Humidity 48    
Minimum Humidity 14    
Precipitation  
Precipitation 0.00 in - - ()
Sea Level Pressure  
Sea Level Pressure 30.07 in    
Wind  
Wind Speed 14 mph (NW)    
Max Wind Speed 29 mph    
Max Gust Speed 37 mph    
Visibility 10 miles    
Events      
Averages and records for this station are not official NWS values.
T = Trace of Precipitation, MM = Missing Value Source: NWS Daily Summary

Daily Weather History Graph

Daily Weather History Graph

Search for Another Location

Airport or City:

Trip Planner

Search our weather history database for the weather conditions in past years. The results will help you decide how hot, cold, wet, or windy it might be!

Date:

Astronomy

Apr. 18, 2013 Rise Set
Actual Time 6:30 AM MDT 7:42 PM MDT
Civil Twilight 6:04 AM MDT 8:08 PM MDT
Nautical Twilight 5:33 AM MDT 8:40 PM MDT
Astronomical Twilight 5:00 AM MDT 9:12 PM MDT
Moon 12:47 PM MDT (4/18) 1:56 AM MDT (4/18)
Length of Visible Light 14h 04m
Length of Day
13h 11m
First Quarter, 52% of the Moon is Illuminated
Apr 18
First Quarter
Apr 25
Full
May 2
Last Quarter
May 9
New
May 17
First Quarter

Hourly Weather History & Observations

Time (MDT) Temp. Windchill Dew Point Humidity Pressure Visibility Wind Dir Wind Speed Gust Speed Precip Events Conditions
12:15 AM 30.2 °F 23.4 °F 12.2 °F 47% 30.00 in 10.0 mi WNW 6.9 mph - N/A   Overcast
12:35 AM 32.0 °F 23.0 °F 12.2 °F 44% 30.01 in 10.0 mi WNW 11.5 mph - N/A   Overcast
12:55 AM 32.0 °F 22.1 °F 14.0 °F 48% 30.01 in 10.0 mi NW 13.8 mph - N/A   Overcast
1:15 AM 32.0 °F 21.6 °F 12.2 °F 44% 30.01 in 10.0 mi NNW 15.0 mph - N/A   Overcast
1:35 AM 32.0 °F 21.2 °F 10.4 °F 41% 30.01 in 10.0 mi NW 16.1 mph - N/A   Overcast
1:55 AM 30.2 °F 21.3 °F 10.4 °F 44% 30.01 in 10.0 mi NW 10.4 mph - N/A   Overcast
2:15 AM 28.4 °F 22.2 °F 8.6 °F 43% 30.02 in 10.0 mi WNW 5.8 mph - N/A   Overcast
2:35 AM 28.4 °F 21.2 °F 8.6 °F 43% 30.01 in 10.0 mi WNW 6.9 mph - N/A   Overcast
2:55 AM 30.2 °F 21.3 °F 6.8 °F 37% 30.01 in 10.0 mi NW 10.4 mph - N/A   Overcast
3:15 AM 30.2 °F 20.2 °F 6.8 °F 37% 30.00 in 10.0 mi NNW 12.7 mph 18.4 mph N/A   Overcast
3:35 AM 30.2 °F 19.3 °F 8.6 °F 40% 30.00 in 10.0 mi NW 15.0 mph 19.6 mph N/A   Overcast
3:55 AM 28.4 °F 18.0 °F 8.6 °F 43% 30.01 in 10.0 mi NW 12.7 mph - N/A   Overcast
4:15 AM 28.4 °F 18.5 °F 6.8 °F 40% 30.01 in 10.0 mi WNW 11.5 mph - N/A   Overcast
4:35 AM 28.4 °F 18.0 °F 8.6 °F 43% 30.01 in 10.0 mi NW 12.7 mph - N/A   Overcast
4:55 AM 26.6 °F 17.5 °F 6.8 °F 43% 30.01 in 10.0 mi NW 9.2 mph - N/A   Overcast
5:15 AM 26.6 °F 16.2 °F 6.8 °F 43% 30.01 in 10.0 mi WNW 11.5 mph 17.3 mph N/A   Overcast
5:35 AM 26.6 °F 13.8 °F 1.4 °F 34% 30.01 in 10.0 mi NW 17.3 mph - N/A   Overcast
5:50 AM 26.6 °F 13.8 °F 6.8 °F 43% 30.01 in 10.0 mi WNW 17.3 mph - N/A   Clear
6:50 AM 26.6 °F 14.3 °F 1.4 °F 34% 30.02 in 10.0 mi WNW 16.1 mph - N/A   Clear
7:50 AM 28.4 °F 17.0 °F 1.4 °F 31% 30.05 in 10.0 mi NW 15.0 mph - N/A   Clear
8:50 AM 32.0 °F 18.6 °F 1.4 °F 27% 30.06 in 10.0 mi NNW 25.3 mph 28.8 mph N/A   Clear
9:50 AM 35.6 °F 23.7 °F 3.2 °F 26% 30.07 in 10.0 mi NW 24.2 mph 29.9 mph N/A   Clear
10:50 AM 37.4 °F 25.6 °F 3.2 °F 24% 30.07 in 10.0 mi WNW 26.5 mph - N/A   Partly Cloudy
11:49 AM 39.2 °F 29.0 °F 1.4 °F 21% 30.07 in 10.0 mi WNW 21.9 mph 28.8 mph N/A   Scattered Clouds
1:50 PM 41.0 °F 30.9 °F -0.4 °F 18% 30.07 in 10.0 mi NW 24.2 mph 34.5 mph N/A   Scattered Clouds
2:50 PM 42.8 °F 33.3 °F -2.2 °F 15% 30.07 in 10.0 mi NW 24.2 mph 36.8 mph N/A   Scattered Clouds
3:50 PM 44.6 °F 35.9 °F -0.4 °F 15% 30.07 in 10.0 mi WNW 23.0 mph 36.8 mph N/A   Scattered Clouds
4:50 PM 44.6 °F 36.4 °F -2.2 °F 14% 30.08 in 10.0 mi NW 20.7 mph 32.2 mph N/A   Scattered Clouds
5:50 PM 42.8 °F 32.5 °F -2.2 °F 15% 30.10 in 10.0 mi NW 28.8 mph - N/A   Scattered Clouds
6:50 PM 41.0 °F 31.1 °F -2.2 °F 16% 30.12 in 10.0 mi NW 23.0 mph - N/A   Scattered Clouds
7:50 PM 39.2 °F 28.7 °F -2.2 °F 17% 30.15 in 10.0 mi NW 23.0 mph - N/A   Clear
10:15 PM 35.6 °F 25.2 °F -0.4 °F 22% 30.21 in 10.0 mi NW 18.4 mph 21.9 mph N/A   Clear
10:35 PM 35.6 °F 25.2 °F -0.4 °F 22% 30.21 in 10.0 mi NW 18.4 mph 24.2 mph N/A   Clear
10:55 PM 33.8 °F 23.2 °F -0.4 °F 23% 30.21 in 10.0 mi NW 17.3 mph - N/A   Clear
11:15 PM 33.8 °F 23.9 °F -0.4 °F 23% 30.21 in 10.0 mi NW 15.0 mph - N/A   Clear
11:35 PM 32.0 °F 23.0 °F -0.4 °F 25% 30.22 in 10.0 mi NW 11.5 mph - N/A   Clear
11:55 PM 32.0 °F 23.0 °F -0.4 °F 25% 30.22 in 10.0 mi NW 11.5 mph - N/A   Clear